Regional Weather Roundup
Issued by NWS

Home | Current Version | Previous Version | Graphics & Text | Print | Product List | Glossary On
Versions: 1 2 3 4 5 6 7 8 9 10 11 12 13 14 15 16 17 18 19 20 21 22 23 24 25 26 27 28 29 30 31 32 33 34 35 36 37 38 39 40 41 42 43 44 45 46 47 48 49 50
000
ASUS43 KLMK 232010
RWRKY
KENTUCKY REGIONAL WEATHER ROUNDUP
NATIONAL WEATHER SERVICE LOUISVILLE KY
400 PM EDT MON APR 23 2018

NOTE "FAIR" INDICATES FEW OR NO CLOUDS BELOW 12,000 FEET
WITH NO SIGNIFICANT WEATHER AND/OR OBSTRUCTIONS TO VISIBILITY.

KYZ001>023-026-027-061>063-070>075-232100-
WESTERN AND SOUTH CENTRAL KENTUCKY

CITY           SKY/WX    TMP DP  RH WIND       PRES   REMARKS
PADUCAH        TSTM      59  57  93 SW7       29.88S FOG
HENDERSON      FAIR      67  58  72 E9        29.91F
OWENSBORO      CLOUDY    66  55  68 E9        29.92F
HOPKINSVILLE   NOT AVBL
BOWLING GREEN  PTSUNNY   67  57  70 E12       29.91F
GLASGOW        PTSUNNY   67  53  60 SE15G24   29.94F
$$

KYZ024-025-028>034-038-045-046-053-232100-
NORTH CENTRAL KENTUCKY

CITY           SKY/WX    TMP DP  RH WIND       PRES   REMARKS
LOUISVILLE/SDF CLOUDY    63  55  75 E12       29.99F
LOUISVILLE/LOU CLOUDY    63  56  78 E14       30.00F
FORT KNOX      CLOUDY    65  55  69 E13       29.98F
$$

KYZ035>037-039>044-047>052-055>060-089>105-232100-
NORTHEAST KENTUCKY

CITY           SKY/WX    TMP DP  RH WIND       PRES   REMARKS
LEXINGTON      CLOUDY    60  52  74 E18G28    30.04F
COVINGTON      LGT RAIN  56  53  90 E15       30.09F
FRANKFORT      CLOUDY    60  52  74 E17G24    30.02F
$$

KYZ054-064>069-076>088-106>120-232100-
SOUTHEAST KENTUCKY

CITY           SKY/WX    TMP DP  RH WIND       PRES   REMARKS
JACKSON        CLOUDY    53  51  93 NE5       30.09F
LONDON         LGT RAIN  57  50  77 E12G17    30.04F
SOMERSET       CLOUDY    61  48  63 MISG      30.02F
MIDDLESBORO    RAIN      55  54  95 W3        30.05F
MONTICELLO     CLOUDY    63  50  62 SE16      29.99F
$$





USA.gov is the U.S. government's official web portal to all federal, state and local government web resources and services.